When you browse on this site, cookies collect data to enhance your experience and personalize the content and advertising you see.
Visit our Privacy Policy to learn more. By continuing to use the site, you agree to this use of cookies and data.
  • In United Kingdom
  • List of Countries
  • For 7 days
  • Water Temperature
  • Weather Map
  • Weather Widgets
  • user-avatar
    Login

    Hourly Weather Satif

    Today, 3 June, Wednesday

    Time Temperature Precipitation Wind Pressure Humidity
    00:00 +20°C° 0 mm 1 mps 671 mmHg 54%
    01:00 +19°C° 0 mm 1 mps 670 mmHg 56%
    02:00 +19°C° 0 mm 1 mps 670 mmHg 58%
    03:00 +16°C° 0 mm 0 mps 669 mmHg 61%
    04:00 +17°C° 0.1 mm 0 mps 670 mmHg 57%
    05:00 +20°C° 0.1 mm 1 mps 670 mmHg 54%
    06:00 +21°C° 0 mm 1 mps 671 mmHg 49%
    07:00 +22°C° 0 mm 1 mps 671 mmHg 46%
    08:00 +24°C° 0 mm 1 mps 671 mmHg 43%
    09:00 +25°C° 0 mm 1 mps 672 mmHg 41%
    10:00 +26°C° 0 mm 2 mps 671 mmHg 37%
    11:00 +27°C° 0 mm 2 mps 671 mmHg 32%
    12:00 +28°C° 0 mm 2 mps 671 mmHg 28%
    13:00 +29°C° 0 mm 3 mps 671 mmHg 27%
    14:00 +29°C° 0 mm 4 mps 671 mmHg 26%
    15:00 +29°C° 0 mm 4 mps 670 mmHg 26%
    16:00 +28°C° 0 mm 4 mps 670 mmHg 30%
    17:00 +28°C° 0 mm 4 mps 670 mmHg 35%
    18:00 +27°C° 0 mm 4 mps 669 mmHg 39%
    19:00 +25°C° 0 mm 3 mps 669 mmHg 44%
    20:00 +24°C° 0 mm 2 mps 669 mmHg 50%
    21:00 +23°C° 0 mm 1 mps 669 mmHg 55%
    22:00 +21°C° 0 mm 2 mps 668 mmHg 55%
    23:00 +21°C° 0 mm 2 mps 668 mmHg 56%

    Tomorrow, 4 June, Thursday

    Time Temperature Precipitation Wind Pressure Humidity
    00:00 +21°C° 0 mm 2 mps 668 mmHg 56%
    01:00 +20°C° 0 mm 2 mps 667 mmHg 56%
    02:00 +20°C° 0 mm 3 mps 667 mmHg 56%
    03:00 +20°C° 0 mm 3 mps 667 mmHg 56%
    04:00 +20°C° 0 mm 3 mps 667 mmHg 55%
    05:00 +21°C° 0 mm 3 mps 667 mmHg 54%
    06:00 +21°C° 0 mm 3 mps 667 mmHg 53%
    07:00 +23°C° 0 mm 4 mps 668 mmHg 45%
    08:00 +26°C° 0 mm 5 mps 669 mmHg 38%
    09:00 +27°C° 0 mm 7 mps 669 mmHg 30%
    10:00 +28°C° 0 mm 7 mps 669 mmHg 28%
    11:00 +29°C° 0 mm 7 mps 669 mmHg 25%
    12:00 +29°C° 0 mm 8 mps 669 mmHg 22%
    13:00 +29°C° 0 mm 8 mps 669 mmHg 23%
    14:00 +29°C° 0 mm 8 mps 669 mmHg 23%
    15:00 +29°C° 0 mm 8 mps 668 mmHg 23%
    16:00 +27°C° 0 mm 8 mps 668 mmHg 28%
    17:00 +26°C° 0 mm 8 mps 668 mmHg 33%
    18:00 +23°C° 0 mm 8 mps 668 mmHg 38%
    19:00 +22°C° 0 mm 7 mps 668 mmHg 44%
    20:00 +20°C° 0 mm 5 mps 668 mmHg 49%
    21:00 +19°C° 0 mm 4 mps 668 mmHg 54%
    22:00 +18°C° 0 mm 3 mps 668 mmHg 57%
    23:00 +18°C° 0 mm 3 mps 668 mmHg 60%

    Day after tomorrow, 5 June, Friday

    Time Temperature Precipitation Wind Pressure Humidity
    00:00 +17°C° 0 mm 2 mps 668 mmHg 63%
    01:00 +17°C° 0 mm 2 mps 668 mmHg 67%
    02:00 +16°C° 0 mm 2 mps 667 mmHg 71%
    03:00 +15°C° 0 mm 2 mps 667 mmHg 75%
    04:00 +16°C° 0 mm 2 mps 667 mmHg 69%
    05:00 +16°C° 0 mm 3 mps 668 mmHg 63%
    06:00 +17°C° 0 mm 4 mps 668 mmHg 58%
    07:00 +17°C° 0 mm 5 mps 669 mmHg 53%
    08:00 +19°C° 0 mm 6 mps 669 mmHg 49%
    09:00 +20°C° 0 mm 8 mps 670 mmHg 44%
    10:00 +21°C° 0 mm 7 mps 670 mmHg 43%
    11:00 +22°C° 0 mm 7 mps 671 mmHg 41%
    12:00 +22°C° 0 mm 7 mps 671 mmHg 40%
    13:00 +22°C° 0 mm 7 mps 671 mmHg 39%
    14:00 +22°C° 0 mm 6 mps 671 mmHg 38%
    15:00 +22°C° 0 mm 6 mps 671 mmHg 37%
    16:00 +22°C° 0 mm 5 mps 671 mmHg 40%
    17:00 +21°C° 0 mm 4 mps 671 mmHg 42%
    18:00 +20°C° 0 mm 4 mps 671 mmHg 44%
    19:00 +19°C° 0 mm 3 mps 671 mmHg 49%
    20:00 +19°C° 0 mm 1 mps 672 mmHg 54%
    21:00 +16°C° 0 mm 0 mps 672 mmHg 59%
    22:00 +16°C° 0 mm 0 mps 672 mmHg 60%
    23:00 +16°C° 0 mm 0 mps 672 mmHg 61%

    6 June, Saturday

    Time Temperature Precipitation Wind Pressure Humidity
    00:00 +16°C° 0 mm 0 mps 671 mmHg 62%
    01:00 +15°C° 0 mm 0 mps 671 mmHg 64%
    02:00 +15°C° 0 mm 0 mps 671 mmHg 66%
    03:00 +14°C° 0 mm 0 mps 671 mmHg 67%
    04:00 +15°C° 0 mm 0 mps 671 mmHg 63%
    05:00 +16°C° 0 mm 0 mps 672 mmHg 59%
    06:00 +17°C° 0 mm 0 mps 672 mmHg 55%
    07:00 +20°C° 0 mm 1 mps 672 mmHg 49%
    08:00 +22°C° 0 mm 1 mps 673 mmHg 43%
    09:00 +23°C° 0 mm 2 mps 673 mmHg 37%
    10:00 +25°C° 0 mm 3 mps 674 mmHg 32%
    11:00 +26°C° 0 mm 4 mps 674 mmHg 26%
    12:00 +28°C° 0 mm 5 mps 674 mmHg 20%
    13:00 +28°C° 0 mm 5 mps 674 mmHg 20%
    14:00 +29°C° 0 mm 6 mps 673 mmHg 20%
    15:00 +29°C° 0 mm 6 mps 673 mmHg 20%
    16:00 +29°C° 0 mm 5 mps 673 mmHg 23%
    17:00 +28°C° 0 mm 5 mps 672 mmHg 27%
    18:00 +27°C° 0 mm 4 mps 672 mmHg 30%
    19:00 +26°C° 0 mm 3 mps 672 mmHg 33%
    20:00 +25°C° 0 mm 2 mps 672 mmHg 36%
    21:00 +24°C° 0 mm 1 mps 672 mmHg 39%
    22:00 +24°C° 0 mm 2 mps 671 mmHg 39%
    23:00 +23°C° 0 mm 2 mps 671 mmHg 38%

    7 June, Sunday

    Time Temperature Precipitation Wind Pressure Humidity
    00:00 +23°C° 0 mm 2 mps 671 mmHg 37%
    01:00 +22°C° 0 mm 3 mps 671 mmHg 38%
    02:00 +22°C° 0 mm 3 mps 670 mmHg 38%
    03:00 +22°C° 0 mm 3 mps 670 mmHg 39%
    04:00 +23°C° 0 mm 2 mps 670 mmHg 39%
    05:00 +24°C° 0 mm 2 mps 671 mmHg 39%
    06:00 +24°C° 0 mm 2 mps 671 mmHg 39%
    07:00 +26°C° 0 mm 2 mps 672 mmHg 36%
    08:00 +27°C° 0 mm 3 mps 672 mmHg 32%
    09:00 +28°C° 0 mm 3 mps 672 mmHg 28%
    10:00 +29°C° 0 mm 3 mps 672 mmHg 28%
    11:00 +29°C° 0 mm 4 mps 672 mmHg 27%
    12:00 +30°C° 0 mm 5 mps 672 mmHg 26%
    13:00 +29°C° 0 mm 4 mps 672 mmHg 28%
    14:00 +29°C° 0 mm 4 mps 671 mmHg 30%
    15:00 +28°C° 0 mm 4 mps 671 mmHg 33%
    16:00 +26°C° 0 mm 5 mps 670 mmHg 38%
    17:00 +23°C° 0 mm 5 mps 670 mmHg 44%
    18:00 +21°C° 0 mm 6 mps 670 mmHg 49%
    19:00 +20°C° 0.1 mm 4 mps 670 mmHg 53%
    20:00 +19°C° 0.1 mm 3 mps 670 mmHg 56%
    21:00 +18°C° 0.1 mm 2 mps 671 mmHg 59%
    22:00 +18°C° 0 mm 2 mps 671 mmHg 60%
    23:00 +19°C° 0 mm 1 mps 671 mmHg 62%

    8 June, Monday

    Time Temperature Precipitation Wind Pressure Humidity
    00:00 +18°C° 0 mm 1 mps 671 mmHg 63%
    01:00 +18°C° 0 mm 1 mps 670 mmHg 64%
    02:00 +18°C° 0 mm 1 mps 670 mmHg 64%
    03:00 +17°C° 0 mm 2 mps 669 mmHg 65%
    04:00 +18°C° 0 mm 1 mps 670 mmHg 62%
    05:00 +19°C° 0 mm 1 mps 670 mmHg 59%
    06:00 +19°C° 0 mm 1 mps 670 mmHg 57%
    07:00 +20°C° 0 mm 1 mps 670 mmHg 51%
    08:00 +22°C° 0 mm 1 mps 671 mmHg 46%
    09:00 +23°C° 0 mm 2 mps 671 mmHg 41%
    10:00 +24°C° 0 mm 2 mps 672 mmHg 38%
    11:00 +25°C° 0 mm 2 mps 672 mmHg 35%
    12:00 +26°C° 0 mm 3 mps 672 mmHg 32%
    13:00 +26°C° 0 mm 3 mps 672 mmHg 34%
    14:00 +26°C° 0 mm 4 mps 672 mmHg 36%
    15:00 +26°C° 0 mm 4 mps 671 mmHg 37%
    16:00 +23°C° 0.3 mm 4 mps 671 mmHg 45%
    17:00 +22°C° 0.3 mm 4 mps 671 mmHg 53%
    18:00 +20°C° 0.3 mm 5 mps 671 mmHg 61%
    19:00 +19°C° 0.4 mm 4 mps 671 mmHg 65%
    20:00 +18°C° 0.4 mm 3 mps 671 mmHg 69%
    21:00 +17°C° 0.4 mm 2 mps 672 mmHg 73%
    22:00 +17°C° 0.1 mm 2 mps 672 mmHg 73%
    23:00 +18°C° 0.1 mm 1 mps 672 mmHg 74%
    Show more